Hourly Weather Roundup
Issued by NWS Central Illinois

Home | Current Version | Previous Version | Text Only | Print | Product List | Glossary On
Versions: 1 2 3 4 5 6 7 8 9 10 11 12 13 14 15 16 17 18 19 20 21 22 23 24 25 26 27 28 29 30 31 32 33 34 35 36 37 38 39 40 41 42 43 44 45 46 47 48 49 50
000
NZUS43 KILX 032310
HWRILX

AREA WEATHER ROUNDUP
NATIONAL WEATHER SERVICE, LINCOLN IL
600 PM CDT SUN MAY 03 2015


CITY           SKY/WX    TMP DP  RH WIND       PRES   REMARKS
BLOOMINGTON    MOSUNNY   81  49  32 SW21G28   29.93R HX  80
CHAMPAIGN      MOSUNNY   81  43  26 S22G30    29.95S
DANVILLE       CLOUDY    79  44  28 S17G25    29.95R
DECATUR        SUNNY     80  48  32 S22       29.95R
EFFINGHAM      SUNNY     78  40  25 S13       30.00S
FLORA          SUNNY     78  44  30 S14       30.00S
GALESBURG      MOSUNNY   81  55  41 S21       29.87S HX  80
JACKSONVILLE   SUNNY     85  50  29 SW21      29.90S HX  82
LACON          PTSUNNY   81  50  33 SW14G21   29.87S HX  80
LAWRENCEVILLE  SUNNY     79  45  29 S16       30.01S
LITCHFIELD     MOSUNNY   80  45  29 S22       29.95S
$$


CITY           SKY/WX    TMP DP  RH WIND       PRES   REMARKS
LINCOLN        SUNNY     83  47  27 S10G21    29.89S HX  81
MACOMB         MOSUNNY   83  52  33 S17G23    29.89S HX  82
MATTOON        SUNNY     77  45  32 S13G20    29.97S
MT CARMEL AP   SUNNY     82  34  17 S13G18    30.01S HX  80
OLNEY-NOBLE AP SUNNY     79  43  27 S10G16    30.01R
PARIS          MOSUNNY   77  44  30 S14       29.99S
PEORIA         MOSUNNY   84  51  31 SW18G25   29.88S HX  82
PONTIAC        PTSUNNY   82  48  30 S14       29.92R HX  80
RANTOUL        MOSUNNY   82  45  27 S18G25    29.95S HX  80
ROBINSON       SUNNY     79  45  29 S15G25    30.01S
SPRINGFIELD    SUNNY     83  49  30 S15G26    29.92R HX  81
TAYLORVILLE    MOSUNNY   79  46  31 S17G28    29.95R
$$

...REGIONAL REPORTS...


CITY           SKY/WX    TMP DP  RH WIND       PRES   REMARKS
CHICAGO O`HARE LGT RAIN  76  47  35 SW10      29.91R
KANKAKEE       PTSUNNY   78  46  32 S18       29.94R
MOLINE         SUNNY     81  54  39 SW12      29.84R HX  81
MOUNT VERNON   MOSUNNY  N/A N/A N/A S15       30.01S
PITTSFIELD     MOSUNNY   81  51  34 S14       29.91S HX  80
QUINCY         MOSUNNY   78  54  43 S18G25    29.88S
ROCKFORD       CLOUDY    64  58  80 E9        29.93F THUNDER
$$


CITY           SKY/WX    TMP DP  RH WIND       PRES   REMARKS
BURLINGTON     SUNNY     82  56  40 S15G25    29.84F HX  82
CEDAR RAPIDS   MOSUNNY   81  57  43 S16       29.81S HX  81
DES MOINES     CLOUDY    82  56  40 SW15G23   29.79R HX  82
KIRKSVILLE     SUNNY     81  58  45 S16G23    29.85F HX  81
OTTUMWA        MOSUNNY   80  56  43 SW15G26   29.82R HX  80
ST LOUIS       CLOUDY    83  46  27 S13G22    29.94S HX  81
$$


CITY           SKY/WX    TMP DP  RH WIND       PRES   REMARKS
TERRE HAUTE    PTSUNNY   77  46  33 S12       30.00F
EVANSVILLE     SUNNY     78  48  34 S12       30.03F
INDIANAPOLIS   PTSUNNY   74  46  36 SW12      30.01R
LAFAYETTE      MOSUNNY   76  44  32 S12G20    29.98R
MADISON        PTSUNNY   71  55  56 S18       29.87F
MILWAUKEE      CLOUDY    69  54  58 SW15G23   29.92R
$$





USA.gov is the U.S. government's official web portal to all federal, state and local government web resources and services.